When you browse on this site, cookies collect data to enhance your experience and personalize the content and advertising you see.
Visit our Privacy Policy to learn more. By continuing to use the site, you agree to this use of cookies and data.

Hourly Weather Santa Fe

Today, 8 August, Saturday

Time Temperature Precipitation Wind Pressure Humidity
00:00 +14°C° 0 mm 2 mps 764 mmHg 94%
01:00 +15°C° 0 mm 2 mps 764 mmHg 95%
02:00 +15°C° 0 mm 2 mps 764 mmHg 95%
03:00 +15°C° 0 mm 1 mps 763 mmHg 96%
04:00 +15°C° 0 mm 1 mps 763 mmHg 96%
05:00 +15°C° 0 mm 1 mps 762 mmHg 97%
06:00 +15°C° 0 mm 1 mps 763 mmHg 96%
07:00 +16°C° 0 mm 1 mps 763 mmHg 95%
08:00 +15°C° 0 mm 0 mps 763 mmHg 93%
09:00 +19°C° 0 mm 1 mps 763 mmHg 87%
10:00 +20°C° 0 mm 1 mps 763 mmHg 81%
11:00 +21°C° 0 mm 2 mps 762 mmHg 75%
12:00 +23°C° 0 mm 2 mps 762 mmHg 69%
13:00 +24°C° 0 mm 2 mps 761 mmHg 63%
14:00 +26°C° 0 mm 2 mps 760 mmHg 57%
15:00 +25°C° 0 mm 2 mps 760 mmHg 60%
16:00 +24°C° 0 mm 1 mps 760 mmHg 63%
17:00 +24°C° 0 mm 1 mps 760 mmHg 67%
18:00 +22°C° 0 mm 1 mps 760 mmHg 71%
19:00 +21°C° 0 mm 1 mps 760 mmHg 76%
20:00 +20°C° 0 mm 1 mps 761 mmHg 81%
21:00 +19°C° 0 mm 1 mps 761 mmHg 82%
22:00 +19°C° 0 mm 1 mps 761 mmHg 83%
23:00 +19°C° 0 mm 1 mps 761 mmHg 85%

Tomorrow, 9 August, Sunday

Time Temperature Precipitation Wind Pressure Humidity
00:00 +19°C° 0 mm 1 mps 760 mmHg 86%
01:00 +19°C° 0 mm 1 mps 760 mmHg 87%
02:00 +18°C° 0 mm 1 mps 760 mmHg 88%
03:00 +18°C° 0 mm 1 mps 760 mmHg 88%
04:00 +18°C° 0 mm 1 mps 759 mmHg 87%
05:00 +18°C° 0 mm 1 mps 759 mmHg 87%
06:00 +19°C° 0 mm 1 mps 759 mmHg 84%
07:00 +18°C° 0 mm 2 mps 759 mmHg 81%
08:00 +19°C° 0 mm 2 mps 759 mmHg 78%
09:00 +20°C° 0 mm 3 mps 759 mmHg 70%
10:00 +22°C° 0 mm 4 mps 759 mmHg 62%
11:00 +25°C° 0 mm 5 mps 758 mmHg 54%
12:00 +27°C° 0 mm 5 mps 757 mmHg 49%
13:00 +28°C° 0 mm 5 mps 756 mmHg 45%
14:00 +29°C° 0 mm 5 mps 755 mmHg 41%
15:00 +28°C° 0 mm 5 mps 755 mmHg 44%
16:00 +27°C° 0 mm 4 mps 754 mmHg 48%
17:00 +26°C° 0 mm 3 mps 753 mmHg 52%
18:00 +25°C° 0 mm 3 mps 753 mmHg 53%
19:00 +23°C° 0 mm 4 mps 753 mmHg 54%
20:00 +22°C° 0 mm 4 mps 753 mmHg 56%
21:00 +22°C° 0 mm 4 mps 753 mmHg 55%
22:00 +21°C° 0 mm 4 mps 753 mmHg 55%
23:00 +21°C° 0 mm 4 mps 752 mmHg 55%

Day after tomorrow, 10 August, Monday

Time Temperature Precipitation Wind Pressure Humidity
00:00 +20°C° 0 mm 3 mps 752 mmHg 56%
01:00 +20°C° 0 mm 3 mps 752 mmHg 58%
02:00 +19°C° 0 mm 2 mps 752 mmHg 60%
03:00 +18°C° 0 mm 2 mps 752 mmHg 62%
04:00 +19°C° 0 mm 1 mps 752 mmHg 64%
05:00 +18°C° 0 mm 1 mps 752 mmHg 66%
06:00 +18°C° 0 mm 2 mps 753 mmHg 67%
07:00 +18°C° 0 mm 3 mps 754 mmHg 67%
08:00 +18°C° 0 mm 4 mps 755 mmHg 67%
09:00 +20°C° 0 mm 5 mps 755 mmHg 62%
10:00 +22°C° 0 mm 7 mps 756 mmHg 56%
11:00 +23°C° 0 mm 8 mps 756 mmHg 50%
12:00 +23°C° 0 mm 8 mps 756 mmHg 43%
13:00 +23°C° 0 mm 8 mps 757 mmHg 35%
14:00 +23°C° 0 mm 8 mps 757 mmHg 28%
15:00 +21°C° 0 mm 7 mps 757 mmHg 28%
16:00 +20°C° 0 mm 7 mps 758 mmHg 28%
17:00 +17°C° 0 mm 6 mps 759 mmHg 28%
18:00 +16°C° 0 mm 5 mps 760 mmHg 29%
19:00 +15°C° 0 mm 5 mps 761 mmHg 29%
20:00 +13°C° 0 mm 5 mps 762 mmHg 30%
21:00 +12°C° 0 mm 5 mps 763 mmHg 30%
22:00 +11°C° 0 mm 4 mps 764 mmHg 30%
23:00 +10°C° 0 mm 4 mps 764 mmHg 30%

11 August, Tuesday

Time Temperature Precipitation Wind Pressure Humidity
00:00 +10°C° 0 mm 4 mps 765 mmHg 30%
01:00 +8°C° 0 mm 4 mps 765 mmHg 29%
02:00 +7°C° 0 mm 4 mps 766 mmHg 29%
03:00 +7°C° 0 mm 3 mps 765 mmHg 29%
04:00 +7°C° 0 mm 3 mps 765 mmHg 30%
05:00 +5°C° 0 mm 3 mps 765 mmHg 30%
06:00 +6°C° 0 mm 2 mps 765 mmHg 31%
07:00 +6°C° 0 mm 2 mps 766 mmHg 32%
08:00 +7°C° 0 mm 2 mps 766 mmHg 33%
09:00 +8°C° 0 mm 2 mps 766 mmHg 29%
10:00 +10°C° 0 mm 2 mps 766 mmHg 25%
11:00 +13°C° 0 mm 2 mps 766 mmHg 22%
12:00 +13°C° 0 mm 2 mps 765 mmHg 22%
13:00 +14°C° 0 mm 2 mps 764 mmHg 22%
14:00 +14°C° 0 mm 2 mps 763 mmHg 22%
15:00 +14°C° 0 mm 2 mps 763 mmHg 25%
16:00 +14°C° 0 mm 2 mps 763 mmHg 28%
17:00 +13°C° 0 mm 1 mps 762 mmHg 32%
18:00 +12°C° 0 mm 1 mps 762 mmHg 33%
19:00 +11°C° 0 mm 1 mps 762 mmHg 34%
20:00 +10°C° 0 mm 1 mps 763 mmHg 35%
21:00 +9°C° 0 mm 1 mps 763 mmHg 37%
22:00 +9°C° 0 mm 1 mps 763 mmHg 38%
23:00 +9°C° 0 mm 1 mps 763 mmHg 40%

12 August, Wednesday

Time Temperature Precipitation Wind Pressure Humidity
00:00 +8°C° 0 mm 1 mps 762 mmHg 42%
01:00 +8°C° 0 mm 1 mps 762 mmHg 44%
02:00 +7°C° 0 mm 1 mps 762 mmHg 46%
03:00 +7°C° 0 mm 1 mps 761 mmHg 47%
04:00 +6°C° 0 mm 1 mps 761 mmHg 48%
05:00 +6°C° 0 mm 1 mps 761 mmHg 49%
06:00 +7°C° 0 mm 1 mps 761 mmHg 49%
07:00 +6°C° 0 mm 2 mps 761 mmHg 49%
08:00 +7°C° 0 mm 2 mps 761 mmHg 49%
09:00 +9°C° 0 mm 2 mps 761 mmHg 44%
10:00 +12°C° 0 mm 2 mps 761 mmHg 39%
11:00 +14°C° 0 mm 2 mps 761 mmHg 34%
12:00 +14°C° 0 mm 2 mps 760 mmHg 32%
13:00 +15°C° 0 mm 2 mps 759 mmHg 30%
14:00 +16°C° 0 mm 2 mps 758 mmHg 29%
15:00 +15°C° 0 mm 2 mps 758 mmHg 33%
16:00 +15°C° 0 mm 2 mps 758 mmHg 37%
17:00 +14°C° 0 mm 2 mps 758 mmHg 42%
18:00 +13°C° 0 mm 2 mps 758 mmHg 46%
19:00 +10°C° 0 mm 2 mps 759 mmHg 50%
20:00 +9°C° 0 mm 2 mps 759 mmHg 53%
21:00 +9°C° 0 mm 1 mps 759 mmHg 56%
22:00 +8°C° 0 mm 1 mps 760 mmHg 59%
23:00 +7°C° 0 mm 0 mps 760 mmHg 61%

13 August, Thursday

Time Temperature Precipitation Wind Pressure Humidity
00:00 +7°C° 0 mm 0 mps 760 mmHg 62%
01:00 +6°C° 0 mm 0 mps 760 mmHg 63%
02:00 +7°C° 0 mm 1 mps 759 mmHg 64%
03:00 +7°C° 0 mm 1 mps 759 mmHg 64%
04:00 +6°C° 0 mm 1 mps 759 mmHg 64%
05:00 +5°C° 0 mm 2 mps 759 mmHg 65%
06:00 +6°C° 0 mm 2 mps 760 mmHg 61%
07:00 +7°C° 0 mm 1 mps 760 mmHg 58%
08:00 +8°C° 0 mm 1 mps 760 mmHg 54%
09:00 +10°C° 0 mm 1 mps 760 mmHg 47%
10:00 +13°C° 0 mm 2 mps 760 mmHg 40%
11:00 +15°C° 0 mm 2 mps 760 mmHg 33%
12:00 +16°C° 0 mm 1 mps 760 mmHg 30%
13:00 +18°C° 0 mm 1 mps 759 mmHg 28%
14:00 +19°C° 0 mm 1 mps 758 mmHg 25%
15:00 +18°C° 0 mm 1 mps 758 mmHg 29%
16:00 +16°C° 0 mm 1 mps 758 mmHg 34%
17:00 +14°C° 0 mm 0 mps 757 mmHg 38%
18:00 +14°C° 0 mm 1 mps 758 mmHg 39%
19:00 +12°C° 0 mm 1 mps 758 mmHg 41%
20:00 +10°C° 0 mm 1 mps 758 mmHg 42%
21:00 +10°C° 0 mm 1 mps 758 mmHg 43%
22:00 +10°C° 0 mm 1 mps 758 mmHg 44%
23:00 +8°C° 0 mm 2 mps 758 mmHg 45%
Show more